Вернуться в каталог

STARLINK-32685

АктивенСвязьVLEO
NORAD 62500·PAYLOAD·🇺🇸 United States

Запущен Jan 6, 2025 с Cape Canaveral Space Force Station

Loading…

Ближайшие Пролёты (ближайшие 24 часа)

TLE

СвежийSource: CelesTrak SupGP

Эпоха: Sep 15, 2026, 02:51 UTC

1 62500C 25003P   26258.11923611  .00021302  00000+0  77151-3 0  2589
2 62500  43.0003 299.4270 0001256 262.6090 305.2818 15.27569556    16

Отслеживайте STARLINK-32685 в реальном времени с AllMySat

Download on the App Store